Weather History for KMVY - April, 2014

Change the Weather History Date:

Sunday, April 27, 2014

  Actual Average Record
Temperature  
Mean Temperature 44 °F -  
Max Temperature 50 °F 57 °F 78 °F (1985)
Min Temperature 39 °F 40 °F 28 °F (1972)
Degree Days  
Heating Degree Days 20    
Moisture  
Dew Point 39 °F    
Average Humidity 78    
Maximum Humidity 89    
Minimum Humidity 61    
Precipitation  
Precipitation 0.01 in - - ()
Sea Level Pressure  
Sea Level Pressure 29.93 in    
Wind  
Wind Speed 4 mph (North)    
Max Wind Speed 12 mph    
Max Gust Speed -    
Visibility 8 miles    
Events Rain    
Averages and records for this station are not official NWS values.
T = Trace of Precipitation, MM = Missing Value Source: NWS Daily Summary

Daily Weather History Graph

Daily Weather History Graph

Search for Another Location

Airport or City:

Trip Planner

Search our weather history database for the weather conditions in past years. The results will help you decide how hot, cold, wet, or windy it might be!

Date:

Astronomy

Apr. 27, 2014 Rise Set
Actual Time 5:45 AM EDT 7:35 PM EDT
Civil Twilight 5:15 AM EDT 8:05 PM EDT
Nautical Twilight 4:39 AM EDT 8:41 PM EDT
Astronomical Twilight 4:00 AM EDT 9:20 PM EDT
Moon 4:45 AM EDT (4/27) 6:05 PM EDT (4/27)
Length of Visible Light 14h 50m
Length of Day
13h 50m
Waning Crescent, 3% of the Moon is Illuminated
Apr 27
Waning Crescent
Apr 29
New
May 6
First Quarter
May 14
Full
May 21
Last Quarter

Hourly Weather History & Observations

Time (EDT) Temp. Windchill Dew Point Humidity Pressure Visibility Wind Dir Wind Speed Gust Speed Precip Events Conditions
12:53 AM 39.9 °F 36.7 °F 35.1 °F 83% 29.85 in 10.0 mi ESE 4.6 mph - N/A   Overcast
1:53 AM 42.1 °F - 35.1 °F 76% 29.85 in 10.0 mi Calm Calm - N/A   Overcast
2:53 AM 39.9 °F - 34.0 °F 79% 29.85 in 10.0 mi Calm Calm - N/A   Overcast
3:53 AM 41.0 °F - 36.0 °F 82% 29.86 in 10.0 mi Calm Calm - N/A   Overcast
4:53 AM 41.0 °F - 37.0 °F 86% 29.86 in 10.0 mi Calm Calm - 0.00 in   Overcast
5:53 AM 41.0 °F - 37.0 °F 86% 29.86 in 10.0 mi Calm Calm - N/A   Overcast
6:53 AM 43.0 °F - 37.9 °F 82% 29.88 in 10.0 mi Calm Calm - N/A   Overcast
7:53 AM 44.1 °F - 39.0 °F 82% 29.89 in 10.0 mi Calm Calm - 0.00 in Rain Light Rain
8:31 AM 44.1 °F 42.5 °F 39.9 °F 85% 29.89 in 3.0 mi SW 3.5 mph - 0.01 in   Overcast
8:40 AM 44.1 °F 41.5 °F 39.9 °F 85% 29.90 in 2.5 mi SW 4.6 mph - 0.01 in   Overcast
8:49 AM 44.6 °F 42.2 °F 39.2 °F 81% 29.89 in 5.0 mi SSW 4.6 mph - 0.01 in   Overcast
8:53 AM 44.1 °F 41.5 °F 39.9 °F 85% 29.89 in 9.0 mi SSW 4.6 mph - 0.01 in   Overcast
9:53 AM 45.0 °F 41.8 °F 39.0 °F 80% 29.90 in 10.0 mi SSW 5.8 mph - N/A   Overcast
10:53 AM 45.0 °F 41.8 °F 37.9 °F 76% 29.92 in 10.0 mi South 5.8 mph - N/A   Overcast
11:26 AM 46.0 °F - 37.0 °F 71% 29.93 in 10.0 mi Calm Calm - N/A   Overcast
12:37 PM 45.0 °F 41.8 °F 39.9 °F 82% 29.94 in 2.5 mi ENE 5.8 mph - 0.00 in Rain Light Rain
12:44 PM 45.0 °F 40.6 °F 39.9 °F 82% 29.94 in 2.0 mi ENE 8.1 mph - 0.00 in Rain Light Rain
12:53 PM 45.0 °F 39.7 °F 41.0 °F 86% 29.94 in 2.0 mi NE 10.4 mph - 0.00 in   Overcast
1:29 PM 45.0 °F 42.6 °F 41.0 °F 86% 29.95 in 4.0 mi NE 4.6 mph - 0.01 in   Overcast
2:02 PM 46.0 °F 43.1 °F 43.0 °F 89% 29.95 in 8.0 mi NNE 5.8 mph - N/A   Overcast
2:20 PM 46.9 °F - 41.0 °F 80% 29.95 in 10.0 mi NNE 6.9 mph - N/A   Overcast
2:27 PM 48.0 °F - 41.0 °F 77% 29.95 in 10.0 mi NNE 8.1 mph - N/A   Overcast
2:53 PM 48.9 °F - 39.9 °F 71% 29.95 in 10.0 mi North 8.1 mph - N/A   Mostly Cloudy
3:08 PM 48.9 °F - 39.0 °F 69% 29.95 in 10.0 mi North 5.8 mph - N/A   Overcast
3:18 PM 50.0 °F - 39.0 °F 66% 29.95 in 10.0 mi NNW 11.5 mph - N/A   Overcast
3:46 PM 48.9 °F - 37.0 °F 64% 29.95 in 10.0 mi North 10.4 mph - N/A   Overcast
4:03 PM 48.9 °F - 37.9 °F 66% 29.95 in 10.0 mi North 11.5 mph - N/A   Overcast
4:53 PM 50.0 °F - 37.9 °F 63% 29.96 in 10.0 mi NNE 11.5 mph - N/A   Overcast
5:53 PM 50.0 °F - 37.0 °F 61% 29.96 in 10.0 mi North 9.2 mph - N/A   Scattered Clouds
6:53 PM 46.9 °F - 37.9 °F 71% 29.97 in 10.0 mi North 6.9 mph - N/A   Clear
7:53 PM 44.1 °F 42.5 °F 37.0 °F 76% 30.00 in 10.0 mi NW 3.5 mph - N/A   Clear
8:53 PM 42.1 °F 39.2 °F 37.0 °F 82% 30.02 in 10.0 mi WNW 4.6 mph - N/A   Clear
9:53 PM 42.1 °F 38.4 °F 37.9 °F 85% 30.03 in 10.0 mi WNW 5.8 mph - N/A   Clear
10:53 PM 44.1 °F 40.1 °F 39.9 °F 85% 30.03 in 10.0 mi West 6.9 mph - N/A   Scattered Clouds
11:53 PM 45.0 °F 40.1 °F 41.0 °F 86% 30.02 in 10.0 mi NW 9.2 mph - N/A   Mostly Cloudy